Weather Roundup
Issued by NWS Chicago, IL

Home | Current Version | Previous Version | Text Only | Print | Product List | Glossary On
Versions: 1 2 3 4 5 6 7 8 9 10 11 12 13 14 15 16 17 18 19 20 21 22 23 24 25 26 27 28 29 30 31 32 33 34 35 36 37 38 39 40 41 42 43 44 45 46 47 48 49 50
000
NZUS59 KLOT 271721
HRRLOT

CHICAGO AREA WEATHER ROUNDUP
NATIONAL WEATHER SERVICE CHICAGO/ROMEOVILLE IL
1200 PM CDT MON APR 27 2015

NOTE: "FAIR" INDICATES FEW OR NO CLOUDS BELOW 12,000 FEET WITH NO
SIGNIFICANT WEATHER AND/OR OBSTRUCTIONS TO VISIBILITY.

* THESE STATIONS ARE NOT UNDER NWS QUALITY CONTROL. THEY ALSO MAY NOT
  REPORT WEATHER SUCH AS PRECIPITATION OR FOG.

ILZ005-006-012>014-019>023-271800-
NORTHEAST ILLINOIS

CITY           SKY/WX    TMP DP  RH WIND       PRES   REMARKS
OHARE          MOSUNNY   53  34  48 NE15      30.12S
MIDWAY         MOSUNNY   54  33  45 N21G28    30.13R
AURORA         PTSUNNY   55  35  47 N10       30.13F
LANSING*       SUNNY     50  33  53 N20G25    30.13S
JOLIET*        PTSUNNY   56  35  46 N13G20    30.12F
WAUKEGAN       SUNNY     51  35  54 NE13G21   30.12F
DUPAGE AIRPORT PTSUNNY   55  36  48 N17G26    30.12S
WHEELING       SUNNY     52  33  48 NE15      30.15S
KANKAKEE*      PTSUNNY   54  37  51 N16G25    30.11F
MORRIS*        MOSUNNY   56  36  46 N7        30.10F
LEWIS AIRPORT* MOSUNNY   55  34  45 N15       30.12S
NORTHERLY IS     N/A     46  35  65 N14         N/A
$$

WIZ051-052-058>065-066-070>072-271800-
SOUTHEAST WISCONSIN

CITY           SKY/WX    TMP DP  RH WIND       PRES   REMARKS
MILWAUKEE      MOSUNNY   51  34  52 NE14      30.14S
KENOSHA*       SUNNY     55  36  48 NE10      30.12F
RACINE*        SUNNY     51  34  52 NE15      30.15F
BURLINGTON     MOSUNNY   53  33  46 NW14      30.12F
WAUKESHA       MOSUNNY   54  34  47 N10G17    30.14S
WEST BEND      MOSUNNY   54  32  43 N13G20    30.12S
$$

INZ001>003-010>013-019-020-271800-
NORTHWEST INDIANA

CITY           SKY/WX    TMP DP  RH WIND       PRES   REMARKS
GARY*          MOSUNNY   50  32  50 N17G32    30.14R
MICHIGAN CITY* NOT AVBL
RENSSELAER*    NOT AVBL
VALPARAISO     MOSUNNY   49  35  58 N16G26    30.11R
$$

LMZ740>746-271800-
SOUTHERN LAKE MICHIGAN

STATION/POSITION TIME  SKY/WX   TEMP WIND        PRES    VSBY
                                AIR  DIR/SP/G
                 (UTC)          (F)  (DEG/KT/KT) (MB)    (MI)
HARRISON CRIB    1700            42  350/ 14/ 17   N/A
BURNHAM HARBOR   1700            47  350/ 14/ 18   N/A
CALUMET HARBOR   1600            46  350/ 12/ 21   N/A
BURNS HARBOR     1600            42  350/ 17/ 23 1020.3R
MICHIGAN CITY    1700            42  330/ 23/ 27   N/A
$$

ABBREVIATIONS USED IN REMARKS
   TC - TEMPERATURE IN CELSIUS
  WCI - WIND CHILL INDEX
   HX - HEAT INDEX
  VSB - VISIBILITY
$$



USA.gov is the U.S. government's official web portal to all federal, state and local government web resources and services.